Погода Пильво

Погода Пильво : погода сейчас, прогноз погоды и архив. Всё, что Вы хотите узнать о погоде Пильво!

Хотите узнать прогноз погоды Пильво? Тогда Вам сюда: Погода Пильво

Поиск расширенной информации на нашем сайте:

Другие новости

Новости СМИ2

Главная страница сайта

Новости сайта

03.07.2017

Напоминаем, что на нашем специализированном сайте Метеоцентр.Азия вы можете получить высокодетализированные автоматические прогнозы погоды по пунктам России, СНГ и мира в авиационном формате (включающие направление и скорость ветра, видимость, явления погоды, количество и форму облачности, нижнюю и верхнюю границу облачности).


Погода Пильво - сегодня

Время (UTC), дата Ветер
(°,м/с) 
Видим.   Явления Облачность Т
(°С)
Тd
(°С)
f(%) Тe
(°С)
Pmin
(гПа)
dP
(гПа)
Po
(мм)
O2
(г/м3)
Тmin Tmax R s Состояние
почвы
18 19.06.18 110 (В) 4-6{07}  н/о    н/о 
+16.1 +12.9 81 +21  1004  -1.5  753  284           
21 19.06.18 210 (ЮЗ) 8-10{12}  20000 м    10/10 600 м 
[Sc]
+12.5 +10.2 86 +12  1004.4  0.4  753  288  +12.5        влажная 
12 20.06.18 230 (ЮЗ) 1-5{11}  н/о    н/о 
+15.9 +12.7 81 +22  1003.8  0.7  752  284           
15 20.06.18 130 (ЮВ) 2-3{05}  н/о    н/о 
+15.2 +14 93 +23  1002.7  -1.1  752  284           
18 20.06.18 080 (В) 4-6{07}  н/о    н/о 
+15.3 +14 92 +22  1001.2  -1.5  750  283           
21 20.06.18 110 (В) 5-8{12}  20000 м  слаб. ливневой дождь  10/8 600 м кучево-дожд., средняя 
[Cb cap|Ac As]
+14.7 +12.8 88 +19  1000.7  -0.5  750  284  +13.5      влажная 
00 21.06.18 100 (В) 5-9{13}  4000 м  ливневой дождь  10/10 600 м кучево-дожд. 
[Cb cap]
+12.9 +11.5 91 +15  999.8  -0.9  749  286  +12.9         
12 21.06.18 070 (В) 6-9{10}  н/о    н/о 
+13.1 +9.3 78 +12  998.2  0.2  748  286           
15 21.06.18 090 (В) 4-6{10}  н/о    н/о 
+12.9 +9.6 80 +13  997.2  -1  747  286           
18 21.06.18 110 (В) 3-4{07}  н/о    н/о 
+11.7 +9.8 88 +12  996.3  -0.9  747  287           
21 21.06.18 170 (Ю) 2-2{04}  20000 м    10/8 200 м средняя 
[St|Ac As]
+10.6 +9.1 90 +11  996.1  -0.2  747  288  +10.6    0.0    влажная 
00 22.06.18 190 (Ю) 2-2{03}  0500 м  морось{туман}  ?/?  
+10.5 +9.8 95 +12  995.3  -0.8  746  288  +10.4         
12 22.06.18 260 (З) 4-6{09}  н/о    н/о 
+9 +8.3 95 +8  995  0.5  746  289           
15 22.06.18 270 (З) 7-8{09}  н/о    н/о 
+8.1 +7.2 94 +6  994.8  -0.2  746  291           
18 22.06.18 320 (СЗ) 5-6{10}  н/о    н/о 
+7 +5.7 91 +5  994.3  -0.5  745  292           
21 22.06.18 300 (СЗ) 8-11{11}  10 км  слаб. ливневой дождь  10/10 200 м кучево-дожд. 
[Cb cap]
+8.3 +7.4 94 +6  994.1  -0.3  745  290  +6.7    13    влажная 
12 23.06.18 060 (СВ) 1-1{03}  н/о    н/о 
+7.8 +7 95 +9  997.7  1.6  748  292           
15 23.06.18 310 (СЗ) 1-2{05}  н/о    н/о 
+7.5 +6.5 93 +8  998.1  0.4  748  292           
18 23.06.18 120 (ЮВ) 2-3{03}  н/о    н/о 
+6.9 +6.3 96 +7  999.3  1.2  749  293           
21 23.06.18 110 (В) 2-3{04}  20000 м    9/9 600 м кучево-дожд. 
[Cb cap]
+7.8 +7.1 95 +8  1001.2  1.9  750  293  +6.8      влажная 
12 24.06.18 100 (В) 1{08}  н/о    н/о 
+9.3 +7.8 90 +10  1006.8  1.5  755  293           
15 24.06.18 110 (В) 2-3{06}  н/о    н/о 
+9 +7.6 91 +9  1007.4  0.6  755  293           
18 24.06.18 110 (В) 3-4{05}  н/о    н/о 
+9.4 +8.4 93 +9  1008.5  1.1  756  293           
21 24.06.18 120 (ЮВ) 3-4{06}  20000 м    6/0 средняя 
[Ac trans]
+10.3 +9.2 93 +10  1010.1  1.6  757  292  +8.8        влажная 
12 25.06.18 150 (ЮВ) 3-6{10}  н/о    н/о 
+11.7 +8 78 +11  1014  1.4  760  292           
Время (UTC), дата Ветер
(°,м/с) 
Видим.   Явления Облачность Т
(°С)
Тd
(°С)
f(%) Тe
(°С)
Pmin
(гПа)
dP
(гПа)
Po
(мм)
O2
(г/м3)
Тmin Tmax R s Состояние
почвы

Для получения пояснительной информации подведите курсор к названию столбца.

ПОГОДА Пильво - архив

Всё, что Вы хотите узнать о погоде Пильво - удобно и подробно!

Выберите нужную дату (начиная с 1 января 2015* года) и нажмите кнопку "Найти".
Будут отображены архивные сводки погоды по пункту Пильво, начиная с указанной даты.


Отображать данные в формате CSV (для использования в таблицах Excel)


Внимание! Наш архив погоды предназначен исключительно для личного некоммерческого использования в познавательных целях. Если Вам необходимы официальные справки о состоянии погоды (для производственных, юридических, коммерческих и т.п. целей), обращайтесь в органы Росгидромета.

*Примечание: данная дата относится к архиву по метеостанциям СССР (Россия, СНГ, Балтия).
Архив по метеостанциям Зарубежной Европы и Азии (кроме Китая) хранится 10 дней, по другим регионам земного шара (Китай, Африка, Америка, Австралия, Океания) - 1 день.

Пильво - район местоположения метеостанции


Название, широта, долгота, высота метеостанции:
Пильво 50.1°ш. 142.2°д. 4 м над ур. моря [Российская Федерация]

Дополнительная информация

В oтличие oт бoльшинства пoгoдных сайтoв мы публикуем пoдрoбную метеoинфoрмацию в детальнoм прoфессиoнальнoм фoрмате.

Характеристики температуры и влажнoсти вoздуха измеряются на высoте 2 м в тени вдали oт зданий и деревьев.
Скoрoсть ветра измеряется на высoте 10 м (на урoвне рoста челoвека скoрoсть ветра ниже в 1.5-2 раза). Если метеoстанция нахoдится в гoрoде или в лесу, тo скoрoсть ветра занижена на 2-4 м/с пo сравнению с oткрытым местoм. Скoрoсть ветра над акватoриями крупных рек и oзёр, а также на вершинах хoлмoв на 2-5 м/с выше, чем в oбычных услoвиях.
Атмoсфернoе давление в разных тoчках местнoсти мoжет значительнo oтличаться oт давления на метеoстанции, в зависимoсти oт услoвий рельефа (при пoдъёме на 10 м давление пoнижается примернo на 1 мм рт.ст.).